Tracking 20232 objects as of 20-Jan-2020
HD Live streaming from Space Station
objects crossing your sky now

TITAN 3C TRANSTAGE DEB

Track TITAN 3C TRANSTAGE DEB now!


NORAD ID: 40551
Int'l Code: 1965-108DR
Perigee: 602.9 km
Apogee: 31,539.9 km
Inclination: 26.6 °
Period: 557.7 minutes
Semi major axis: 22442 km
RCS: Unknown
Launch date: December 21, 1965
Source: United States (US)
Launch site: AIR FORCE EASTERN TEST RANGE (AFETR)

Note: This is SATELLITE DEBRIS
aabbcc
Your satellite tracking list
Your tracking list is empty




NASA's NSSDC Master Catalog

Two Line Element Set (TLE):
1 40551U 65108DR  20020.07622365 -.00000731  00000-0 -81431-2 0  9992
2 40551  26.6497 286.9757 6892517 260.5083  22.0006  2.58225268106273
Source of the keplerian elements: AFSPC